Home > Weather > Boston > Past weeks

Flag for USA Weather for the Past 2 Weeks in Boston, Massachusetts, USA

Now
46 °F

More clouds than sun.


Feels Like: 42 °F
Forecast: 43 / 51 °F
Wind: 8 mph from East

Location: Logan International Airport

Current Time: May 4, 2016 at 8:14:53 AM

Latest Report: May 4, 2016 at 6:54 AM


Visibility: 10 mi

Pressure: 29.88 "Hg

Humidity: 86%

Dew Point: 42 °F

Location of BostonLocation

Historic Weather in Boston — Graph

°F

Boston Temperature Yesterday

Maximum temperature yesterday: 49 °F (at 1:54 PM)
Minimum temperature yesterday: 45 °F (at 4:54 AM)
Average temperature yesterday: 47 °F

High & Low Weather Summary for the Past Weeks

 TemperatureHumidityPressure
High78 °F (Apr 22, 3:54 PM)97% (May 2, 12:54 PM)30.26 "Hg (May 2, 12:54 PM)
Low37 °F (Apr 26, 7:54 PM)13% (Apr 21, 3:54 PM)29.75 "Hg (Apr 26, 11:54 AM)
Average50 °F62%30.01 "Hg
* Reported Apr 19 6:54 AM — May 4 6:54 AM, Boston, Weather by CustomWeather, © 2016

Note: Actual official high and low records may vary slightly from our data, if they occured in-between our weather recording intervals... More about our weather records

Advertising

Boston Weather History for the Previous 24 Hours

Scroll right to see more
 ConditionsComfort  
Time TempWeatherWind HumidityBarometerVisibility
6:54 AM
Wed, May 4
46 °FMore clouds than sun.8 mph86%29.88 "Hg10 mi
5:54 AM46 °FPassing clouds.9 mph86%29.87 "Hg10 mi
4:54 AM45 °FPassing clouds.7 mph90%29.86 "Hg10 mi
3:54 AM46 °FMostly cloudy.7 mph86%29.86 "Hg10 mi
2:54 AM45 °FOvercast.5 mph93%29.85 "Hg10 mi
1:54 AM45 °FPassing clouds.6 mph90%29.85 "Hg10 mi
12:54 AM45 °FOvercast.5 mph90%29.87 "Hg10 mi
11:54 PM
Tue, May 3
46 °FOvercast.No wind86%29.88 "Hg10 mi
10:54 PM46 °FLight rain. Mostly cloudy.6 mph86%29.89 "Hg10 mi
9:54 PM46 °FMostly cloudy.5 mph83%29.89 "Hg10 mi
8:54 PM47 °FOvercast.6 mph80%29.88 "Hg10 mi
7:54 PM47 °FLight rain. Cloudy.6 mph80%29.86 "Hg10 mi
6:54 PM47 °FCloudy.6 mph83%29.85 "Hg10 mi
5:54 PM47 °FMore clouds than sun.8 mph86%29.86 "Hg10 mi
4:54 PM47 °FMostly cloudy.6 mph90%29.85 "Hg10 mi
3:54 PM47 °FLight rain. Mostly cloudy.7 mph90%29.86 "Hg10 mi
1:54 PM49 °FLight rain. More clouds than sun.5 mph86%29.87 "Hg10 mi
12:54 PM46 °FLight rain. Mostly cloudy.6 mph93%29.88 "Hg10 mi
11:54 AM47 °FLight rain. Mostly cloudy.6 mph90%29.92 "Hg10 mi
10:54 AM47 °FLight rain. More clouds than sun.5 mph93%29.92 "Hg10 mi
9:54 AM47 °FLight rain. More clouds than sun.3 mph90%29.93 "Hg10 mi
8:54 AM46 °FLight rain. Mostly cloudy.6 mph89%29.93 "Hg10 mi
Weather by CustomWeather, © 2016

See weather overviewHow to use our weather pages